www.pogodaiklimat.ru

Погода и климат >> Архив погоды >> Южная Африка >> Мыс Mossel Bay


ПОГОДА на Мысе Mossel Bay

  • Прогноз погоды на Мысе Mossel Bay
  • Монитор погоды на Мысе Mossel Bay

АРХИВ ПОГОДЫ на Мысе Mossel Bay

Время (UTC), дата Ветер
(напр.,м/с)
 
Видим.   Явления Облачность Т
(С)
Тd
(С)
f
(%)
Тe
(С)
Тes
(С)
Комфортность P
(гПа)
Po
(гПа)
Тmin
(С)
Tmax
(С)
R
(мм)
R24
(мм)
S
(см)
15 12.08 ЮЗ 4 н/о н/о +14.9 +7.9 63 +14 +14 1021.9 1005.7 +14.9 +18.2
18 12.08 штиль 0 н/о н/о +12.5 +8.4 76 +12 +12 1023.9 1007.6 +12.5 +18.2
21 12.08 СЗ 2 н/о н/о +11.4 +7.3 76 +11 +11 1024.4 1008.0 +11.4 +18.2
00 13.08 З 2 н/о н/о +10.3 +7.2 81 +9 +9 1023.8 1007.3 +10.1 +18.2
03 13.08 СЗ 2 н/о н/о +10.0 +6.3 78 +9 +9 1022.5 1006.0 +9.6 +18.2
06 13.08 штиль 0 н/о н/о +11.0 +6.1 72 +11 +11 1023.1 1006.7 +9.6
09 13.08 Ю 3 н/о н/о +16.7 +6.0 49 +17 +17 1023.8 1007.7 +9.6 +16.7
12 13.08 СЗ 4 н/о н/о +20.4 +4.1 34 +21 +21 комфорт 1021.5 1005.6 +9.6 +24.4
15 13.08 В 2 н/о н/о +16.9 +8.4 57 +17 +17 1021.6 1005.6 +16.9 +24.4
18 13.08 СВ 1 н/о н/о +13.8 +9.0 73 +14 +14 1023.7 1007.4 +13.3 +24.4
21 13.08 СЗ 3 н/о н/о +13.5 +6.1 61 +12 +12 1024.4 1008.1 +12.8 +24.4
00 14.08 З 4 н/о н/о +14.6 +6.7 59 +14 +14 1024.2 1008.0 +12.8 +24.4
03 14.08 З 5 н/о н/о +14.3 +6.7 60 +13 +13 1024.8 1008.6 +12.8 +24.4
06 14.08 З 3 н/о н/о +14.3 +8.9 70 +13 +13 1027.9 1011.6 +12.8
09 14.08 ЮЗ 4 н/о н/о +17.5 +11.6 68 +17 +17 1030.5 1014.3 +12.8 +17.8
12 14.08 Ю 5 н/о н/о +17.9 +12.6 71 +18 +18 1029.3 1013.2 +12.8 +18.2
15 14.08 Ю 2 н/о н/о +16.4 +12.4 77 +16 +16 1030.1 1013.9 +16.4 +18.2
18 14.08 С 1 н/о н/о +13.7 +11.9 89 +14 +14 1031.2 1014.8 +13.7 +18.2
21 14.08 С 2 н/о н/о +13.0 +11.7 92 +12 +12 1030.3 1013.9 +12.3 +18.2
00 15.08 С 1 н/о н/о +12.2 +10.9 92 +12 +12 1028.3 1011.9 +11.6 +18.2
03 15.08 СЗ 2 н/о н/о +11.9 +10.1 89 +11 +11 1026.8 1010.4 +11.6 +18.2
06 15.08 С 2 н/о н/о +14.1 +9.7 75 +14 +14 1026.2 1009.9 +11.6
09 15.08 Ю 2 н/о н/о +19.9 +10.7 55 +22 +22 комфорт 1026.4 1010.4 +11.6 +21.7
12 15.08 Ю 2 н/о н/о +19.3 +10.6 57 +21 +21 комфорт 1024.2 1008.2 +11.6 +21.7
15 15.08 Ю 1 н/о н/о +17.8 +13.1 74 +19 +19 1023.4 1007.4 +17.8 +21.7
18 15.08 З 1 н/о н/о +14.0 +12.2 89 +14 +14 1024.7 1008.4 +13.8 +21.7
21 15.08 З 2 н/о н/о +13.5 +9.0 74 +13 +13 1023.8 1007.5 +12.8 +21.7
00 16.08 ЮЗ 3 н/о н/о +12.9 +11.9 94 +11 +11 1023.1 1006.8 +12.8 +21.7
03 16.08 ЮЗ 3 н/о н/о +11.6 +10.5 93 +10 +10 1021.8 1005.4 +11.3 +21.7
06 16.08 З 3 н/о н/о +10.9 +9.6 92 +9 +9 1024.6 1008.2 +10.9 0.2
09 16.08 З 3 н/о н/о +14.6 +11.2 80 +14 +14 1025.9 1009.7 +10.9 +14.6
12 16.08 Ю 5 н/о н/о +16.6 +11.3 71 +16 +16 1024.6 1008.5 +10.9 +17.2
15 16.08 Ю 4 н/о н/о +16.7 +11.2 70 +16 +16 1025.2 1009.1 +16.6 +17.3
18 16.08 З 2 н/о н/о +14.7 +9.9 73 +14 +14 1027.1 1010.8 +14.7 +17.3
21 16.08 З 1 н/о н/о +13.8 +10.0 78 +14 +14 1027.4 1011.1 +13.1 +17.3
00 17.08 ЮЗ 2 н/о н/о +14.1 +12.5 90 +14 +14 1027.8 1011.5 +13.1 +17.3 0.6
03 17.08 В 3 н/о н/о +13.2 +12.4 95 +12 +12 1027.4 1011.0 +13.0 +17.3
06 17.08 В 3 н/о н/о +13.8 +13.1 96 +13 +13 1027.8 1011.5 +13.0 5
09 17.08 В 3 н/о н/о +14.5 +13.3 93 +13 +13 1026.8 1010.5 +13.0 +15.1
12 17.08 В 4 н/о н/о +17.1 +12.4 74 +17 +17 1024.1 1008.0 +13.0 +17.4 0.8
15 17.08 В 4 н/о н/о +15.9 +12.6 81 +15 +15 1022.6 1006.5 +15.9 +17.4
18 17.08 В 4 н/о н/о +15.4 +13.1 86 +14 +14 1021.8 1005.7 +15.4 +17.4 0.8
21 17.08 СВ 4 н/о н/о +14.8 +12.6 87 +14 +14 1019.5 1003.4 +14.8 +17.4
00 18.08 С 1 н/о н/о +13.4 +12.1 92 +13 +13 1016.9 1000.7 +13.4 +17.4 0.8
03 18.08 С 2 н/о н/о +12.7 +11.6 93 +12 +12 1014.0 997.8 +12.7 +17.4
06 18.08 С 2 н/о н/о +13.9 +11.6 86 +14 +14 1013.2 997.1 +12.6 0.8
09 18.08 Ю 4 н/о н/о +18.2 +12.7 70 +18 +18 1012.9 997.1 +12.6 +20.0
12 18.08 ЮЗ 5 н/о н/о +20.3 +10.5 53 +22 +22 комфорт 1011.9 996.2 +12.6 +26.4 0.2
15 18.08 ЮЗ 6 н/о н/о +16.5 +13.6 83 +15 +15 1013.4 997.5 +16.4 +26.4
18 18.08 ЮЗ 5 н/о н/о +16.0 +11.4 74 +15 +15 1017.8 1001.8 +15.9 +26.4 0.2
21 18.08 З 5 н/о н/о +14.8 +10.2 74 +13 +13 1019.8 1003.7 +14.8 +26.4
00 19.08 З 6 н/о н/о +14.0 +9.6 75 +12 +12 1021.4 1005.2 +13.5 +26.4 0.2
03 19.08 З 5 н/о н/о +12.2 +10.7 91 +10 +10 1023.7 1007.4 +12.2 +26.4
06 19.08 З 3 н/о н/о +12.2 +10.1 87 +11 +11 1026.2 1009.8 +11.9 0.2
09 19.08 З 5 н/о н/о +16.3 +7.6 56 +16 +16 1027.9 1011.7 +11.9 +16.3
12 19.08 ЮЗ 5 н/о н/о +17.3 +7.1 51 +17 +17 1027.7 1011.6 +11.9 +18.1

 

Местоположение метеостанции Мыс Mossel Bay (Южная Африка): широта -34.18 долгота 22.15 высота над уровнем моря 61 м.

В архиве по умолчанию представлена погода на Мысе Mossel Bay за последнюю неделю. Архивные данные за месяц целиком и за предыдущие месяцы, начиная с января 2011 года, Вы можете получить, выбрав интересующий диапазон дат из раскрывающегося списка и нажав кнопку "Ввод!".


*Определитесь, кто Вы:
робот инопланетянин человек

Внимание! Время в таблицах - всемирное. Для получения местного времени необходимо прибавить поправку, которая равна 2 ч.

Смотрите также архив погоды в соседних городах и на ближайших метеорологических станциях:

Погода в Аэропорту Джордж (Южная Африка) (28 км)
Погода в Стилбай (Южная Африка) (72 км)
Погода в Риверсдейле (Южная Африка) (84 км)
Погода в Найсне (Южная Африка) (87 км)
Погода в Плеттенберг-Бей (Южная Африка) (109 км)
Погода в Принс Альберт (Южная Африка) (111 км)
Погода в Ледисмите (Южная Африка) (154 км)
Погода в Уиллоуморе (Южная Африка) (160 км)
Погода в Лайнгсбурге (Южная Африка) (161 км)
Погода в Джоубертине (Южная Африка) (162 км)

Пояснения к столбцам:

Ветер - указаны скорость ветра в м/с - средняя за 10 мин, порывы в срок и между сроками (в фигурных скобках) и направление, откуда дует ветер: С - северный, СВ - северо-восточный, В - восточный, ЮВ - юго-восточный, Ю - южный, ЮЗ - юго-западный, З - западный, СЗ - северо-западный.
Видимость - горизонтальная дальность видимости в метрах или километрах. При видимости от 1 до 10 км при отсутствии осадков обычно наблюдается дымка, при ухудшении видимости до 1 км и менее - туман. В сухую погоду видимость может ухудшаться дымом, пылью или мглою.
Явления - указаны атмосферные явления, наблюдавшиеся в срок или в последний час перед сроком; фигурными скобками обозначены явления, наблюдавшиеся между сроками (за 1-3 часа до срока); квадратными скобками обозначены град или гололедные отложения с указанием их диаметра в мм.
Облачность - указаны через наклонную черту общая и нижняя облачность в баллах и высота нижней границы облаков в метрах; квадратными скобками обозначены формы облаков: Ci - перистые, Cs - перисто-слоистые, Cc - перисто-кучевые, Ac - высококучевые, As - высокослоистые, Sc - слоисто-кучевые, Ns - слоисто-дождевые, Cu - кучевые, Cb - кучево-дождевые. Подробнее классификацию облаков см. в Атласе облаков (PDF).
T - Температура воздуха - температура, измеренная на высоте 2 м над землей.
Td - Температура точки росы - температура, при понижении до которой содержащийся в воздухе водяной пар достигнет насыщения.
f - Относительная влажность воздуха - влажноcть воздуха, измеренная на высоте 2 м над землей.
Te - Эффективная температура - температура, которую ощущает одетый по сезону человек в тени. Характеристика душности погоды. При расчете учитывается влияние влажности воздуха и скорости ветра на теплоощущения человека.
Tes - Эффективная температура на солнце - температура, которую ощущает человек, с поправкой на солнечный нагрев. Характеристика знойности погоды. Зависит от высоты солнца над горизонтом, облачности и скорости ветра. Ночью, в пасмурную погоду, а также при ветре 12 м/с и более поправка равна нулю.
P - Атмосферное давление - приведенное к уровню моря атмосферное давление.
Po - Атмосферное давление - измеренное на уровне метеостанции атмосферное давление.
Tmin - Минимальная температура - минимум температуры воздуха на высоте 2 м над землей.
Tmax - Максимальная температура - максимум температуры воздуха на высоте 2 м над землей.
R - Количество осадков - Количество выпавших осадков за период времени, мм. При наведении курсора мыши на число - период времени, за который выпало указанное количество осадков.
R24 - Количество осадков - Количество выпавших осадков за 24 часа, мм.
S - Снежный покров - Высота снежного покрова, см. При наведении курсора мыши на число - состояние снежного покрова и степень покрытия местности в баллах.